User: anonymous   Login
Location: Unnamed
(48.6007°N, 2.4808°E)
Time: 09:56:05
(UTC+02:00)
Language:

PCSat - Orbit

View from above orbital plane
View from above orbital plane
View from above satellite
View from above satellite

Ground track
Ground track

The orbit data is extracted from the following two-line orbital elements,

1 26931U 01043C   24105.19528849  .00000218  00000-0  11403-3 0  9990
2 26931  67.0491 136.8671 0006111 281.7640  78.2775 14.31172781176958
Epoch (UTC): 14 April 2024 04:41:12
Eccentricity: 0.0006111
inclination: 67.0491°
perigee height: 783 km
apogee height: 792 km
right ascension of ascending node: 136.8671°
argument of perigee: 281.7640°
revolutions per day: 14.31172781
mean anomaly at epoch: 78.2775°
orbit number at epoch: 17695

The dashed part of the orbit path shows where the satellite is in the earth's shadow,  

DLR